Wind_Speed
74 72 70 69 63 61 60 57 55 53 51 50 50 50 49 48 46 45 43 42 41 41 41 42 43 41 40 38 37 36 35 34 35 37 38 40 43 45 47 50 52 51 51 54 53 48 46 47 46 45 45 44 43 43 42 41 40 38 36 35 33 32 31 30 29 27 26 25 24 22 21 20 21 21 20 20 19 19 18 18 17 17 16 16 15 14 14 13
71 71 68 66 62 60 59 57 55 53 51 50 50 50 49 48 46 45 43 41 40 40 40 41 42 41 41 39 38 38 37 35 34 35 37 40 42 44 48 50 51 52 52 55 53 48 49 48 46 47 45 44 44 43 43 41 40 38 37 35 34 33 31 30 29 27 26 26 25 23 22 21 21 21 21 21 20 19 18 17 16 16 15 15 15 14 13 13
68 69 67 65 61 59 59 57 55 53 52 51 51 50 49 47 46 44 42 40 40 40 40 41 41 41 41 41 40 40 39 37 34 33 36 40 42 43 46 49 51 51 53 55 52 49 51 50 48 48 47 45 44 44 43 41 40 38 36 35 35 34 31 30 30 29 28 27 26 25 23 23 22 22 22 21 21 20 19 18 16 15 14 13 14 13 13 12
66 64 64 64 62 59 58 57 55 53 53 52 51 50 48 47 46 44 41 40 39 40 40 40 40 40 41 40 40 41 40 38 34 33 34 36 40 43 44 47 51 51 52 55 52 50 51 49 50 49 48 47 45 45 44 42 41 39 38 38 37 34 33 32 31 30 29 28 28 26 25 24 23 23 22 22 22 21 20 18 17 16 14 13 13 12 12 11
65 61 61 63 62 59 58 56 55 54 53 53 51 50 48 47 45 43 41 40 40 40 39 39 39 38 38 37 38 39 41 40 36 35 34 34 37 41 43 45 51 51 52 56 53 51 52 49 49 48 48 48 47 46 45 43 42 40 40 39 36 35 35 33 32 31 30 29 28 27 26 24 24 23 23 22 22 21 20 19 18 17 15 14 13 13 12 11
63 58 59 63 62 60 57 57 56 55 54 53 52 49 48 46 44 43 42 41 41 40 39 38 38 36 35 34 35 35 38 39 37 38 36 34 36 38 42 43 48 50 51 57 55 52 53 49 48 48 48 48 47 47 45 43 41 40 40 38 37 36 35 34 33 32 31 30 29 28 27 26 24 24 23 22 22 21 21 20 19 17 15 14 13 13 12 11
62 58 59 63 62 60 58 57 57 55 55 54 52 49 47 46 44 44 43 42 41 40 39 38 37 34 30 29 31 33 37 38 38 40 37 36 36 36 39 41 45 47 50 57 56 53 52 49 48 48 48 48 47 46 44 44 42 42 41 40 39 38 36 35 34 33 32 30 29 29 29 27 26 24 23 23 22 22 21 20 20 18 17 15 14 13 12 11
62 59 61 64 62 60 58 58 57 56 55 54 52 49 47 45 44 44 44 43 42 41 41 40 38 33 28 28 32 36 37 37 38 40 37 36 38 36 36 39 41 43 50 58 57 54 52 49 48 47 47 47 46 44 44 44 43 43 42 41 40 39 38 37 35 34 33 31 30 30 29 29 27 26 25 24 23 22 21 21 20 20 18 17 16 15 14 13
63 61 64 64 62 60 59 59 58 57 56 54 52 49 47 45 45 45 45 43 42 41 40 42 41 35 31 32 35 38 36 36 39 39 37 35 36 37 35 37 38 42 52 58 56 55 54 50 48 47 47 46 45 45 45 45 44 42 40 40 41 40 39 38 36 35 34 32 31 30 30 29 29 27 26 26 25 24 23 22 21 20 19 18 18 17 16 15
63 64 66 65 63 61 60 59 58 58 56 54 52 48 47 46 46 46 46 45 42 40 41 44 46 40 35 36 37 36 34 35 38 38 37 35 34 35 35 36 37 41 53 58 55 55 53 49 48 48 48 46 46 47 47 47 45 43 41 42 42 41 40 39 37 36 35 33 32 31 30 29 29 28 27 27 26 25 25 23 22 21 19 19 18 18 17 17
66 66 67 66 64 62 60 60 59 58 57 54 51 48 48 47 47 48 47 46 44 42 43 46 49 46 40 40 39 35 34 35 37 38 37 36 35 34 34 35 36 41 53 58 56 56 52 49 49 50 50 48 49 49 49 48 46 43 43 44 44 42 41 40 38 37 35 34 33 31 30 30 29 27 26 26 26 25 25 23 23 21 20 20 19 19 18 17
68 68 68 66 64 62 61 61 60 59 57 54 51 49 48 47 47 48 48 47 45 45 47 47 49 48 45 44 40 37 37 38 38 38 37 37 37 36 35 35 36 42 53 58 58 57 54 51 51 52 51 50 50 51 51 49 46 44 45 46 46 44 43 41 39 37 36 34 33 32 31 30 27 26 26 25 25 25 24 23 23 22 21 21 20 19 18 17
69 69 68 66 64 63 62 61 61 59 57 53 51 49 48 48 48 47 47 47 46 46 46 46 46 47 47 45 40 39 40 40 38 38 36 37 37 37 36 36 38 44 53 58 58 58 56 54 53 54 52 51 51 52 51 50 47 46 46 46 46 45 45 43 41 39 37 35 34 33 31 29 28 27 26 25 25 24 24 23 22 22 21 20 19 19 18 17
70 70 68 66 65 63 62 62 61 60 56 53 51 49 47 48 49 47 47 47 46 46 45 44 44 44 45 43 40 39 41 40 39 37 36 37 37 37 37 37 40 47 55 57 57 58 57 56 56 55 54 52 51 51 51 49 48 47 47 47 47 47 46 44 41 39 37 35 34 33 31 30 30 29 26 26 26 25 24 24 23 22 21 20 19 19 18 18
71 70 68 66 65 62 62 62 62 60 56 54 51 48 49 50 50 48 48 47 46 45 44 43 42 42 43 41 40 40 40 39 38 37 36 37 38 39 38 39 43 50 55 56 56 56 56 56 56 56 55 53 52 52 51 50 49 49 48 48 48 48 45 42 40 38 37 35 34 34 32 31 30 28 27 26 26 25 24 24 23 23 22 21 20 20 19 19
72 69 68 66 64 63 63 62 61 59 56 54 51 49 52 52 50 49 49 48 47 45 44 42 41 41 43 40 39 40 39 38 37 36 37 38 39 40 41 42 46 51 55 55 55 55 55 55 55 57 56 54 54 53 53 52 51 50 48 48 48 46 43 41 39 38 36 35 35 34 32 31 30 28 28 27 26 26 24 24 23 23 23 22 21 21 20 20
71 69 68 66 65 64 63 62 61 60 57 53 50 51 53 52 50 50 50 49 47 46 44 42 41 42 42 40 39 39 38 37 35 35 37 39 40 41 43 45 48 52 55 54 54 55 55 55 55 56 55 55 55 55 54 54 53 52 51 51 49 45 42 40 39 38 37 36 35 34 31 30 29 28 28 26 26 26 25 24 24 24 24 23 22 21 21 21
70 69 68 66 66 64 63 63 61 60 56 52 52 52 53 52 52 51 51 50 49 48 47 44 43 43 41 39 39 39 38 38 36 35 36 38 40 42 44 48 50 53 54 54 54 54 55 56 56 56 56 56 57 56 55 54 53 52 51 50 45 42 42 40 39 38 36 35 35 34 31 29 29 29 29 27 26 26 25 25 24 25 24 24 23 23 23 23
70 69 68 67 66 65 64 63 62 59 55 54 55 55 55 54 54 53 52 52 50 47 45 42 40 39 37 37 39 40 40 40 37 35 36 38 40 43 45 50 53 53 54 54 55 55 55 56 57 58 59 58 57 56 55 54 54 51 48 45 42 41 41 40 39 37 37 37 36 35 31 30 30 30 29 27 26 26 25 24 25 25 25 25 24 24 24 24
69 69 68 67 67 66 65 64 61 58 56 56 56 57 57 56 55 55 52 49 46 43 40 37 35 36 38 39 41 42 42 41 38 35 36 38 41 43 47 52 55 55 55 55 55 56 55 56 58 58 58 57 56 55 55 55 53 48 45 45 44 43 43 41 40 39 39 39 38 36 33 32 31 30 29 28 26 24 24 24 25 26 25 25 25 25 25 25
69 69 68 68 67 65 64 63 60 58 56 56 56 55 54 54 53 50 47 45 43 41 39 38 36 37 38 39 41 41 40 40 38 35 35 39 42 44 48 53 55 56 56 56 56 55 55 56 57 56 56 56 55 54 53 52 48 46 46 47 46 45 46 45 43 42 42 41 39 37 35 33 31 30 30 29 26 24 24 25 25 26 26 26 26 26 27 26
69 69 68 68 66 65 64 62 60 57 57 56 55 53 51 51 48 45 44 45 44 42 41 41 40 39 39 40 41 40 39 39 37 35 36 40 43 45 49 52 55 56 56 56 55 55 57 57 55 55 56 55 54 52 51 50 48 47 48 48 48 48 47 46 44 44 43 41 39 37 36 34 32 32 32 30 27 25 25 25 25 26 26 26 26 27 27 27
70 69 68 67 66 65 63 61 59 57 56 55 53 52 51 50 47 46 45 44 43 44 45 45 44 43 42 42 42 41 40 38 36 35 36 40 44 46 49 52 54 55 55 55 54 55 57 57 56 56 55 53 52 51 51 51 50 49 49 49 49 49 47 46 45 44 42 42 40 38 37 36 34 34 32 30 28 26 27 26 26 26 26 26 27 27 27 27
69 69 68 67 66 65 63 61 59 57 55 53 53 52 51 49 47 47 46 43 42 42 43 44 44 45 44 43 43 42 40 37 36 35 37 41 45 47 50 52 53 52 52 53 52 53 54 55 54 53 51 51 52 52 52 51 51 51 50 49 50 49 47 46 46 44 43 44 42 40 40 38 36 34 32 31 29 28 27 27 27 27 26 27 27 27 28 28
69 69 68 67 67 64 63 62 60 57 55 54 53 52 50 49 48 47 46 44 43 42 42 41 41 43 43 42 42 42 39 37 36 35 38 44 47 48 51 53 53 49 48 49 50 52 53 52 50 48 48 49 50 51 51 51 51 50 50 49 50 49 47 48 47 45 45 45 43 42 42 40 37 35 33 32 31 29 28 28 28 27 27 27 27 27 28 28
69 69 68 67 67 66 65 63 61 58 56 54 53 51 50 49 49 47 45 44 44 44 43 41 41 42 41 41 41 41 41 39 37 37 40 46 49 49 51 54 53 50 48 48 49 53 54 52 48 47 48 49 49 50 49 49 50 51 50 49 49 48 48 48 48 46 47 46 44 43 43 42 40 37 35 33 32 31 30 29 28 28 27 27 27 27 28 29
70 69 68 68 67 66 66 64 62 60 56 54 52 51 51 50 49 47 46 46 46 45 44 43 44 43 41 42 41 41 42 40 38 38 41 46 49 50 53 55 55 52 50 48 50 54 54 51 49 49 50 50 50 50 50 49 50 52 50 48 48 48 47 48 47 48 48 48 46 45 44 45 43 40 36 34 33 33 31 30 28 28 27 27 27 27 28 29
70 69 69 68 67 66 64 62 62 60 57 54 52 51 51 50 49 48 48 49 49 47 45 44 44 43 42 41 41 42 41 39 40 40 41 46 51 52 54 56 56 53 49 48 51 53 52 50 49 49 50 51 51 50 49 48 50 51 49 46 47 48 48 48 49 49 50 50 49 48 46 47 46 42 38 35 35 34 32 30 29 28 28 28 28 28 29 29
69 70 69 68 67 65 63 61 59 58 56 54 53 53 52 51 50 49 48 50 50 48 46 45 44 44 43 41 40 40 39 39 40 39 40 47 52 54 55 57 58 53 49 49 50 50 48 47 47 48 49 50 50 48 47 47 50 50 48 47 47 48 49 49 50 50 51 51 52 50 48 48 48 44 40 38 36 34 32 31 30 29 29 28 28 29 30 30
69 69 68 67 65 63 61 60 58 56 55 54 54 54 53 53 52 51 51 52 50 47 46 45 43 44 43 41 40 39 39 40 39 39 41 47 52 54 55 56 57 55 52 52 53 51 48 46 46 47 49 50 49 49 48 48 50 51 49 49 48 49 50 51 51 51 52 53 53 52 50 49 49 47 43 39 36 34 34 33 32 31 30 30 29 29 30 31
68 68 67 65 63 60 59 60 59 58 56 55 55 55 55 54 53 53 54 53 50 47 46 45 43 42 41 40 40 39 39 40 41 42 43 46 51 55 57 58 59 58 57 56 56 55 51 48 48 49 49 50 49 49 50 50 51 52 51 50 49 50 51 52 53 53 54 56 55 53 50 49 51 49 44 39 35 35 36 35 34 32 31 31 31 30 31 31
68 68 67 64 61 60 59 60 61 60 58 57 56 57 57 56 56 55 54 52 50 48 45 44 43 41 40 40 40 38 38 39 41 43 43 44 50 55 57 58 60 61 62 62 61 58 54 51 51 51 51 50 50 50 51 52 53 53 52 52 50 51 52 53 55 55 56 57 55 53 50 50 51 48 43 40 37 36 37 37 35 34 33 32 32 32 32 32
69 69 68 66 63 61 62 62 61 60 60 59 58 58 57 57 57 55 53 52 50 47 45 43 41 40 40 41 40 39 39 39 39 42 43 44 49 55 58 58 59 60 62 63 62 59 56 55 54 53 52 51 51 51 52 52 52 52 52 52 51 52 54 54 54 55 54 55 54 51 50 50 50 48 44 41 40 39 38 37 37 36 35 34 34 34 34 34
70 70 69 68 66 64 64 63 62 61 60 59 60 59 58 58 56 54 53 52 49 48 46 44 42 41 41 41 39 38 38 39 39 41 43 44 48 54 57 58 58 58 59 60 59 58 56 56 55 54 52 51 50 50 51 50 50 50 50 50 50 51 52 51 50 51 51 51 51 50 51 51 51 49 46 42 41 41 39 39 38 38 37 37 37 36 36 35
71 71 71 69 68 67 66 65 63 61 61 61 60 60 60 61 58 55 53 51 49 48 46 44 42 41 42 42 40 38 38 39 39 40 42 44 45 48 52 57 58 59 60 60 59 58 56 55 54 52 51 49 48 48 48 48 48 49 49 49 49 49 49 49 48 49 49 50 51 51 52 52 50 50 47 44 42 42 41 41 40 39 39 38 39 38 38 37
71 72 72 70 68 67 66 66 64 63 62 63 62 62 61 60 58 57 54 51 50 49 47 45 45 43 43 43 40 40 40 39 37 38 40 42 44 45 48 54 58 60 61 61 61 60 59 58 57 54 52 51 49 49 48 48 49 49 49 50 49 48 48 47 47 48 48 49 52 52 51 50 50 50 49 46 44 43 42 42 41 41 40 40 40 40 39 38
70 72 73 71 69 68 67 66 65 64 64 64 64 64 62 60 58 57 54 51 50 49 47 47 46 45 45 44 42 42 41 40 39 39 39 41 43 43 45 49 55 59 61 60 60 59 58 59 59 56 55 54 52 51 50 50 50 50 50 49 47 47 47 46 46 48 48 49 52 53 51 49 49 51 50 47 45 44 43 43 43 43 42 42 41 41 39 38
70 72 73 73 71 69 68 66 66 66 65 65 66 64 63 61 60 57 54 51 49 48 47 46 45 43 43 44 43 42 41 41 41 40 40 40 41 41 42 45 49 55 60 61 60 59 57 57 58 57 57 56 55 54 53 53 52 51 50 48 46 47 47 47 48 49 50 51 53 54 53 51 50 51 50 47 46 45 44 44 44 43 43 43 42 41 40 39
73 75 75 75 73 71 70 69 68 67 66 67 68 66 64 63 61 57 54 51 50 48 48 47 45 43 42 41 41 40 39 39 39 38 38 38 37 38 40 42 44 49 57 61 62 61 58 58 59 59 58 58 58 58 57 56 55 54 53 51 49 48 48 48 49 49 50 51 52 55 56 55 53 51 49 49 48 46 45 44 43 43 43 43 42 41 40 40
74 77 77 76 76 74 72 70 69 68 69 69 68 67 66 63 60 57 55 53 51 50 49 47 45 44 43 42 41 39 37 37 37 36 36 35 35 35 36 39 42 44 50 57 62 63 61 60 60 60 59 59 59 60 59 58 57 56 55 54 52 51 51 51 51 50 51 52 52 55 58 58 56 51 49 49 48 47 46 45 44 43 43 43 42 41 40 40
72 75 77 77 78 77 75 73 71 71 71 69 68 68 66 63 61 59 57 54 53 52 51 48 46 45 44 43 43 41 38 38 37 35 36 35 34 35 35 36 38 41 45 52 57 61 63 63 63 62 61 61 61 60 58 57 56 55 55 54 52 51 50 50 51 51 50 51 53 56 59 59 57 52 48 47 47 46 46 45 44 43 43 42 41 41 40 40
70 71 74 76 77 78 77 75 74 73 72 70 69 68 65 62 61 59 57 55 54 53 52 50 48 46 45 44 43 41 40 40 39 37 36 35 35 35 36 36 37 39 41 45 50 56 60 63 64 64 63 63 62 61 58 56 55 54 54 53 52 50 49 48 51 52 51 52 52 54 57 59 56 51 47 46 46 46 45 44 43 42 42 42 41 41 41 40
68 68 70 73 75 77 77 76 75 74 72 70 68 66 64 63 61 59 57 56 55 55 54 52 50 49 48 47 45 43 41 41 41 39 37 37 37 37 37 38 38 39 40 42 47 52 56 59 61 63 64 64 63 61 57 55 54 53 53 53 52 53 52 52 53 54 54 54 53 53 57 61 58 52 49 48 48 46 45 43 43 42 42 42 41 41 40 39
67 67 69 71 73 75 76 74 71 69 67 66 65 65 64 63 61 60 57 56 55 55 54 53 52 51 49 48 47 45 44 44 43 41 39 39 39 39 39 40 40 41 42 43 44 48 54 58 60 62 65 65 65 63 60 58 58 57 57 56 55 55 54 54 54 53 54 56 54 54 59 63 59 53 50 50 48 46 44 43 42 42 41 41 40 39 39 39
66 67 70 71 71 72 71 68 66 65 64 64 64 64 64 62 61 59 58 57 56 55 55 54 53 51 50 49 47 46 45 45 44 43 42 41 41 41 41 43 43 43 43 43 43 44 51 59 61 62 65 67 67 66 65 64 63 62 61 58 57 56 54 52 51 51 54 55 54 54 57 60 57 53 51 50 47 45 44 43 43 42 42 41 40 40 40 40
66 68 69 70 70 70 67 65 63 63 62 62 62 62 62 61 60 58 58 58 58 57 56 54 52 51 51 50 49 48 47 46 46 45 43 43 43 42 43 45 46 46 45 45 46 46 50 58 61 63 64 64 64 64 64 62 60 58 57 55 54 53 51 49 49 51 52 52 53 53 53 54 55 53 52 51 47 45 44 44 43 43 43 43 42 42 42 42
66 67 68 69 69 68 67 66 64 62 60 60 60 59 59 59 59 58 59 59 59 59 57 56 54 53 51 50 49 48 47 47 47 46 45 44 44 43 44 46 47 48 47 46 48 49 52 55 58 62 63 62 61 62 62 60 57 55 54 53 52 51 49 49 50 50 48 48 52 52 49 51 55 53 50 48 45 43 43 43 45 45 45 45 45 44 44 43
64 65 66 68 68 66 64 63 61 61 61 61 61 60 60 60 59 58 58 58 59 59 58 57 56 53 51 49 48 48 48 48 48 47 46 46 45 45 46 47 48 49 49 49 50 52 54 53 53 58 62 62 62 62 62 61 60 58 57 55 54 52 51 52 52 51 48 49 53 53 50 52 55 51 48 48 47 45 45 45 47 48 47 46 45 44 43 43
62 63 64 65 66 66 64 62 62 63 64 64 64 64 63 62 60 59 58 58 58 58 58 57 54 52 51 49 49 49 49 49 48 48 47 46 46 46 46 47 48 49 51 52 52 53 55 54 52 54 59 62 64 64 63 62 63 62 61 60 58 56 55 55 55 54 53 54 57 57 55 57 58 54 51 51 50 48 48 47 47 47 46 45 44 43 42 43
62 62 62 63 65 66 66 67 68 68 67 67 66 65 65 64 63 62 61 59 59 58 57 55 53 51 50 50 49 49 48 47 47 47 46 45 46 45 46 47 47 48 51 52 52 53 54 54 52 52 55 61 65 66 65 64 64 64 64 62 61 59 58 57 57 57 57 58 59 59 59 59 57 52 50 50 49 48 48 47 45 45 44 44 45 45 45 45
60 60 58 58 62 66 68 69 71 71 70 69 66 64 65 65 64 63 62 61 60 59 57 55 53 52 50 50 49 48 47 47 47 47 46 46 46 46 45 45 45 47 49 51 51 53 54 54 53 52 55 58 61 65 68 68 67 67 67 65 64 63 62 61 60 59 58 58 57 57 59 58 53 48 47 48 47 47 47 46 46 46 46 47 48 48 48 49
58 58 57 55 56 61 65 68 70 71 70 68 67 65 64 65 65 64 64 63 62 60 58 57 54 52 50 49 48 47 46 46 47 47 47 48 48 48 48 48 47 47 48 50 50 51 52 53 53 54 56 55 55 60 66 69 72 73 71 67 65 65 64 64 63 61 59 58 57 58 58 55 51 48 48 48 48 48 48 48 49 50 51 52 52 52 52 52
Wind_Direction
221 221 220 220 218 216 216 215 214 211 210 211 212 216 218 220 220 220 220 218 219 218 214 214 216 215 216 216 216 217 218 214 212 213 213 213 214 215 215 215 215 214 214 216 217 214 205 199 198 198 199 197 195 194 194 194 193 192 191 190 189 190 189 187 186 184 182 180 180 180 177 174 171 169 167 166 164 163 161 158 158 158 158 155 152 150 147 145
221 221 220 218 216 214 214 213 212 210 209 209 211 215 218 218 219 218 218 217 217 216 213 213 215 215 216 216 215 216 219 219 216 213 213 214 215 216 215 215 215 215 215 215 214 209 199 196 197 198 199 197 195 194 195 195 194 193 192 191 191 192 190 189 188 186 184 182 182 181 179 177 175 171 170 169 168 167 166 164 163 163 162 159 156 155 153 150
219 220 220 217 215 213 212 212 211 209 208 208 210 214 216 218 218 217 217 217 216 214 212 212 214 215 217 217 217 217 220 223 221 217 215 214 215 216 216 215 214 214 214 214 212 204 196 195 196 197 198 197 196 195 196 196 194 194 192 192 194 193 190 191 191 188 186 185 184 183 181 180 178 176 174 172 172 172 171 170 169 169 168 166 162 161 160 157
219 219 218 216 214 211 211 210 209 207 206 207 209 212 215 216 218 216 215 215 214 213 210 210 212 214 217 218 220 220 220 222 224 224 221 216 215 215 215 215 213 212 213 213 211 202 195 195 195 196 197 196 195 196 196 196 194 194 192 194 194 192 191 193 192 191 189 187 187 186 185 184 182 181 179 177 177 176 176 174 174 175 177 177 173 171 170 167
216 216 215 213 212 210 209 208 207 206 205 206 208 211 214 215 216 215 214 212 211 211 208 207 209 211 215 217 221 223 222 223 224 226 225 221 218 215 214 214 211 211 212 212 210 201 195 197 195 195 197 196 195 195 197 197 195 193 194 196 194 193 194 194 194 192 190 190 190 189 189 188 187 186 185 183 182 181 180 180 181 183 185 187 186 184 183 181
212 211 211 211 210 208 206 206 205 205 204 205 207 209 212 213 215 214 212 210 209 209 205 204 206 207 210 215 222 226 224 222 224 227 226 223 221 216 213 213 211 210 212 211 208 200 195 197 196 194 197 197 195 195 196 197 195 194 196 196 194 195 195 195 196 193 192 192 192 193 193 192 193 192 191 191 189 188 187 186 188 191 194 197 199 200 199 196
210 208 208 208 207 205 204 204 204 203 203 205 206 208 211 211 213 213 212 210 208 208 203 202 204 206 210 213 218 226 225 220 221 225 224 221 222 219 213 211 210 210 212 211 207 199 194 196 197 194 196 197 196 196 196 196 196 196 196 195 195 196 196 197 197 194 194 194 194 196 196 195 196 197 197 198 199 197 196 195 195 197 200 204 209 215 217 215
207 205 206 205 204 202 202 202 202 202 202 204 205 207 209 209 209 210 211 210 208 207 204 203 202 201 206 206 208 216 220 216 217 222 222 219 221 220 215 210 208 209 210 210 204 195 192 196 196 195 196 196 196 196 197 198 198 198 197 196 197 197 197 198 197 195 195 195 196 198 198 198 199 200 201 204 205 206 206 205 204 203 204 208 212 218 223 226
203 202 203 202 201 200 200 201 201 200 201 203 205 205 207 206 205 207 210 210 208 207 206 206 202 199 203 203 205 211 213 213 213 217 219 219 220 220 218 211 207 207 207 206 201 192 191 194 195 195 196 196 196 196 198 199 200 200 198 198 199 198 199 199 197 196 195 196 198 199 200 200 200 201 204 207 209 211 213 213 213 211 211 214 217 221 225 228
200 200 201 200 199 198 199 200 199 199 200 203 204 204 205 204 203 206 208 210 211 207 208 210 206 205 209 206 206 211 214 215 216 218 219 220 222 221 220 215 209 208 205 203 198 192 191 193 194 195 197 197 197 197 198 200 200 199 198 200 200 200 201 200 199 197 196 197 198 200 202 202 201 201 204 209 211 214 217 218 219 219 219 220 223 225 227 229
197 197 199 198 197 197 197 198 198 199 200 202 202 202 204 203 202 205 207 210 210 206 207 211 209 209 215 213 211 216 220 222 223 224 225 225 226 225 222 218 214 210 205 201 195 192 191 193 195 195 196 197 198 198 199 200 199 198 199 200 201 202 203 202 201 199 198 199 200 201 203 204 202 201 204 209 211 215 219 220 221 222 223 224 225 227 229 231
195 195 197 196 195 196 196 197 197 198 199 201 202 201 202 201 202 204 206 207 207 206 208 210 211 213 220 221 220 222 224 224 224 226 227 227 227 227 224 221 218 212 205 199 193 191 191 192 195 196 196 197 198 199 200 199 199 199 200 201 201 202 203 204 202 201 200 200 201 203 205 205 204 204 206 209 210 215 219 221 222 223 224 226 226 229 231 233
194 194 195 194 194 195 195 196 196 197 199 200 201 201 199 200 202 203 205 206 205 206 207 208 210 214 222 225 223 224 224 223 224 223 224 225 226 227 225 222 218 211 203 197 192 191 191 193 195 196 197 198 200 200 200 199 199 200 202 202 202 203 204 204 203 202 202 201 203 205 206 205 207 207 208 211 213 215 219 221 223 225 226 228 229 231 234 235
193 193 193 192 193 194 194 195 196 197 198 198 200 200 197 199 203 202 203 205 205 205 205 207 209 212 220 223 221 222 223 222 222 221 222 224 226 227 225 222 216 207 200 195 192 192 192 193 195 196 197 199 200 201 201 201 200 201 203 203 204 205 204 203 203 203 203 203 205 207 206 207 211 210 208 213 216 216 220 223 225 227 229 231 232 234 235 236
192 191 191 191 192 193 193 195 196 196 197 198 200 197 194 199 202 200 202 204 205 205 205 206 208 212 218 220 219 221 221 220 220 219 221 223 225 226 224 219 212 203 196 192 191 192 193 195 196 197 197 198 200 201 202 202 202 203 204 205 206 207 206 204 204 204 204 204 207 209 207 210 214 212 210 213 218 219 220 224 227 229 231 233 234 235 237 239
190 190 190 190 191 192 193 194 195 195 196 197 198 195 195 199 200 200 202 203 205 205 204 205 207 212 217 218 219 221 220 219 217 218 221 222 223 223 220 216 208 200 194 191 191 192 194 197 198 198 198 199 201 202 202 203 204 204 205 207 209 209 208 206 206 206 206 206 209 210 209 211 215 214 213 214 219 222 221 224 228 230 232 233 235 236 238 241
189 188 189 189 190 192 193 194 194 195 196 196 195 195 197 198 198 200 202 203 205 205 206 205 206 213 216 216 218 220 221 220 217 218 222 223 222 221 218 213 206 198 193 192 192 193 195 198 200 200 200 201 202 202 203 204 205 204 206 208 208 208 209 207 209 208 208 209 210 212 210 212 216 218 218 216 219 224 223 224 228 232 234 235 236 237 239 241
187 187 188 188 189 191 192 193 195 195 195 195 195 196 197 197 198 201 202 203 204 205 205 205 206 212 215 215 218 220 221 221 217 218 223 224 222 221 216 209 202 196 193 193 193 195 197 198 200 202 202 203 203 203 203 204 206 206 208 210 208 209 210 208 209 210 210 211 211 212 210 210 216 220 221 219 218 222 225 226 227 231 235 237 238 238 240 242
186 186 187 187 189 191 192 193 194 195 195 195 195 196 196 197 199 201 202 204 205 206 208 208 209 214 216 216 217 219 221 221 217 218 223 224 222 220 215 206 199 195 194 194 195 197 198 200 202 202 202 203 204 204 204 206 207 207 209 211 210 211 212 210 210 210 212 212 212 213 210 210 216 220 222 222 220 221 225 228 230 232 234 236 240 241 242 244
185 186 187 187 189 191 192 193 194 194 195 197 197 197 197 198 199 201 202 203 206 209 212 213 213 216 216 216 217 217 219 220 217 218 223 223 221 218 214 205 198 196 195 195 197 198 200 202 203 203 203 204 205 206 207 208 208 208 209 210 210 210 212 210 209 210 212 213 213 213 211 211 216 220 222 224 223 222 225 230 234 236 236 236 239 242 244 246
185 186 187 188 190 191 192 192 193 194 196 198 199 199 200 202 204 206 206 205 206 208 211 212 213 216 217 216 219 220 221 222 219 219 222 222 219 216 212 205 199 197 196 197 197 199 202 203 203 204 205 206 207 208 209 210 210 210 210 211 210 211 212 209 208 210 212 213 213 213 213 212 216 221 223 225 224 225 228 231 235 239 240 240 241 242 244 247
186 187 188 188 190 191 192 192 193 195 197 197 198 200 201 204 206 208 210 210 208 206 208 210 212 215 217 216 219 222 223 224 223 222 223 221 218 215 211 206 200 198 198 199 199 201 203 202 203 206 207 208 209 210 211 212 212 211 211 211 211 212 213 211 211 212 213 215 215 214 215 214 217 222 224 225 225 227 231 232 235 240 243 245 245 245 246 247
186 188 188 189 190 191 191 192 193 195 197 198 198 199 200 202 203 205 209 213 212 209 207 208 209 211 214 215 217 220 222 224 224 225 226 222 218 214 211 206 201 199 200 201 202 204 204 203 204 207 208 210 211 211 213 212 212 212 212 212 213 213 215 215 215 215 215 217 216 216 218 217 218 223 225 226 226 228 233 234 234 238 242 246 248 249 249 249
187 188 189 189 190 190 191 192 193 195 196 197 198 199 199 201 202 204 207 211 215 217 214 211 209 210 212 213 215 219 221 222 222 224 226 221 216 213 209 205 202 201 202 204 206 207 207 206 207 209 211 212 212 212 213 214 214 214 213 214 215 215 216 218 217 217 218 219 218 218 221 219 219 223 226 228 227 228 233 236 237 237 239 244 248 252 253 253
187 188 189 189 189 190 191 192 193 194 195 196 197 198 198 199 202 205 207 209 212 216 217 216 214 213 213 213 214 217 220 221 221 223 223 217 213 212 209 205 202 201 203 206 209 211 210 209 211 214 216 215 214 214 215 215 216 216 215 216 216 216 217 219 219 220 221 221 220 222 224 221 221 224 226 229 230 230 233 237 240 241 241 242 246 250 254 255
187 188 188 189 190 191 192 193 193 193 195 196 196 197 197 199 202 204 206 210 212 212 212 212 213 214 214 215 215 217 220 221 219 221 221 216 213 212 209 207 204 202 203 207 210 212 211 210 213 216 217 217 217 216 217 218 219 218 217 218 219 219 220 221 221 222 224 223 222 224 227 225 223 224 226 230 233 234 236 238 240 244 246 247 247 249 252 254
187 188 189 190 191 192 193 194 193 194 195 196 196 196 197 199 201 203 204 208 210 210 208 208 209 211 213 214 215 217 220 221 218 219 220 218 216 213 210 208 206 204 204 207 210 211 211 212 214 216 217 218 218 217 217 219 221 221 219 220 222 222 223 223 223 224 225 225 224 225 228 228 225 225 226 231 235 236 239 241 243 245 248 251 252 252 252 253
187 188 189 190 192 194 194 195 195 195 195 196 197 196 197 199 201 202 204 207 207 205 205 206 207 209 211 212 213 216 219 221 219 219 221 220 217 214 211 209 207 205 205 208 211 210 211 213 215 217 218 219 219 218 218 220 222 221 221 222 224 224 225 225 225 225 225 226 226 225 228 231 228 226 227 231 236 239 241 244 246 247 249 251 254 255 255 254
188 189 189 191 193 194 194 195 196 196 196 196 197 196 197 199 200 201 204 207 206 203 204 204 204 207 210 211 213 216 218 219 220 221 222 222 218 215 213 210 207 206 206 209 211 211 212 214 215 218 220 220 220 220 220 222 223 222 222 223 224 225 226 227 227 227 228 228 228 227 228 232 231 228 228 231 236 241 243 246 247 249 251 252 253 254 255 256
188 189 190 192 193 194 193 193 194 196 196 196 196 196 197 198 198 199 203 206 204 203 204 205 205 206 208 210 213 215 218 218 218 220 222 222 220 218 215 211 209 208 207 209 210 210 210 213 215 217 219 219 220 221 221 222 223 223 223 223 224 225 226 228 228 229 230 230 229 229 229 233 234 230 230 233 237 242 245 247 249 250 253 254 254 254 254 255
189 189 191 192 194 194 194 194 194 195 196 197 197 196 197 198 198 201 204 204 203 204 204 205 206 207 209 212 215 216 218 217 216 218 220 221 221 219 217 213 211 210 210 210 211 210 209 211 214 215 217 218 219 220 221 221 222 222 223 224 224 226 227 228 229 230 232 231 230 231 231 234 236 232 232 234 238 245 247 248 250 252 254 256 256 256 255 255
190 190 191 192 194 194 194 195 195 194 195 197 198 199 199 198 199 203 204 203 204 204 204 206 208 209 211 213 215 218 220 220 218 218 220 220 221 221 220 217 215 214 213 212 212 212 211 212 213 214 215 216 217 219 220 221 222 223 224 224 225 226 227 228 229 230 232 232 232 233 235 237 237 235 237 238 239 245 249 250 252 254 255 257 258 258 257 257
190 191 191 192 193 193 194 195 195 195 195 196 198 200 201 202 204 205 204 204 205 204 204 208 210 211 214 214 214 216 218 220 220 220 221 220 220 221 220 219 218 217 217 216 215 214 213 213 214 214 215 216 217 218 220 221 222 224 225 226 226 228 229 229 231 232 234 235 235 237 239 240 238 238 240 241 242 244 248 252 254 256 257 258 259 259 259 258
190 191 192 193 193 193 194 194 195 196 197 198 199 200 202 205 207 207 206 205 205 205 205 208 210 211 214 217 217 217 218 219 219 221 222 222 221 220 220 220 219 219 220 220 219 219 217 216 216 216 217 218 219 220 221 221 223 225 227 228 229 231 233 234 236 238 238 239 240 241 242 241 240 240 241 244 246 245 248 252 254 257 259 260 261 261 261 260
190 192 193 195 195 195 195 195 195 197 199 201 202 203 204 205 206 207 208 206 206 206 206 208 211 212 214 217 216 216 220 221 221 221 222 224 225 224 223 223 222 221 222 222 221 222 222 221 220 220 221 221 222 223 223 223 224 225 226 228 229 231 234 236 238 239 240 241 241 241 242 242 241 242 244 246 248 247 249 252 254 257 259 261 262 261 261 261
190 192 194 196 197 197 196 196 196 197 201 203 204 206 207 208 207 207 208 207 208 208 207 208 210 212 215 217 216 216 219 221 222 224 224 225 226 226 225 225 224 224 224 224 224 223 223 223 222 222 223 224 224 225 226 226 227 227 229 230 230 232 235 236 239 240 241 242 242 241 243 243 243 245 245 247 249 250 252 254 256 258 259 259 260 261 261 261
192 193 195 196 198 199 199 199 199 199 202 205 207 209 210 209 209 210 208 207 210 211 211 212 213 214 216 218 218 218 218 220 221 222 224 225 226 225 225 225 226 226 226 227 227 226 226 226 224 224 225 225 226 226 227 227 228 229 231 232 233 235 237 237 240 241 242 244 244 243 243 244 245 246 247 249 252 253 255 256 257 258 259 259 259 260 260 260
195 195 196 197 198 200 201 201 202 203 204 206 209 211 211 210 210 211 210 211 213 215 216 217 217 219 220 221 221 221 220 221 222 222 223 224 226 227 225 225 226 227 227 228 229 228 228 228 227 226 226 227 227 228 228 228 229 230 231 232 234 237 237 238 240 241 242 245 246 246 245 244 245 247 248 251 254 256 256 256 256 257 258 259 259 259 260 260
196 196 197 199 200 200 201 203 204 206 207 209 211 212 211 212 212 212 212 214 217 218 220 219 219 221 223 225 226 226 225 226 227 228 229 228 228 228 227 227 227 227 227 228 230 230 228 229 229 227 227 228 228 228 229 229 230 231 232 232 233 236 237 238 240 241 243 245 247 247 246 245 245 247 250 252 254 255 256 256 257 257 257 258 258 259 259 260
198 199 199 200 201 202 203 205 206 209 211 212 213 213 212 212 212 213 214 216 218 220 222 221 221 221 223 225 227 228 229 231 231 233 234 234 234 233 231 231 230 229 229 229 230 231 230 230 230 228 227 227 227 228 229 230 231 232 233 233 234 236 238 240 240 241 243 245 246 247 247 246 245 246 249 252 254 255 256 256 256 256 255 256 258 259 260 260
200 201 201 202 203 205 206 207 209 211 213 214 214 215 215 214 213 214 215 217 219 221 223 223 222 222 224 225 227 227 228 231 231 232 233 233 233 233 233 234 235 234 232 232 231 232 231 231 232 231 229 228 229 229 229 230 230 231 233 233 234 236 239 241 242 241 243 245 247 248 248 247 245 245 247 251 253 254 255 255 255 255 256 257 258 259 259 259
203 203 203 204 206 207 208 210 211 213 214 214 214 214 215 216 217 217 216 218 220 221 223 224 223 224 224 226 228 228 229 232 233 233 234 233 233 234 232 232 236 237 237 238 237 236 235 234 233 233 232 230 228 227 227 228 229 230 231 232 233 234 236 239 241 240 241 243 244 247 248 246 245 245 245 248 250 252 253 254 255 256 257 257 257 257 258 257
205 206 205 206 207 208 209 210 211 213 214 214 214 214 215 216 218 219 219 220 221 222 223 224 223 223 223 225 226 227 228 232 233 234 235 235 235 236 235 232 233 235 236 237 238 237 237 236 236 236 235 232 228 226 226 226 227 228 230 231 232 234 235 237 239 239 239 239 241 244 246 245 244 245 245 247 248 250 252 253 255 256 257 257 257 257 256 256
206 207 207 206 207 208 209 210 212 214 215 216 215 215 215 216 218 219 220 221 222 223 223 224 224 224 223 225 226 226 227 229 232 232 233 234 234 234 235 234 232 233 234 235 237 238 238 238 238 238 236 233 229 226 225 225 227 228 229 230 231 233 234 235 238 239 240 240 240 243 246 246 246 246 246 247 248 249 251 253 254 256 257 257 257 256 255 254
207 207 207 207 207 208 210 212 215 216 216 217 216 215 216 217 219 220 221 222 222 223 224 225 226 226 226 227 227 228 229 230 232 233 232 233 233 233 234 234 232 232 233 234 236 238 239 238 237 237 238 236 234 233 232 231 231 230 229 229 230 232 233 235 237 239 240 241 241 243 246 247 247 246 246 247 247 248 250 252 253 254 255 255 254 253 251 250
209 209 209 208 207 209 212 213 215 217 218 218 218 218 218 219 220 222 224 224 223 224 225 226 227 228 229 229 229 229 230 231 232 233 233 234 235 235 235 235 234 232 232 231 232 234 238 239 238 237 238 240 241 240 237 234 232 232 232 231 232 234 235 236 238 239 240 242 242 243 245 246 247 246 245 246 247 247 248 249 250 250 251 251 251 250 250 249
211 212 213 212 210 211 212 214 216 218 220 221 222 222 223 223 223 225 227 226 225 224 225 226 226 228 229 230 231 231 230 231 232 232 234 235 237 237 237 236 236 234 233 232 231 232 235 239 240 239 239 240 240 238 235 232 231 232 233 233 234 236 237 238 239 240 241 244 243 242 243 244 245 246 245 245 246 246 246 246 247 247 247 248 249 250 251 252
213 215 216 215 215 215 215 216 217 220 222 222 223 224 226 226 226 228 229 229 227 226 226 226 227 228 229 230 232 232 232 232 233 233 234 236 237 238 237 237 237 236 234 233 233 233 234 236 239 241 241 239 237 235 233 232 231 231 232 232 233 233 235 236 238 238 239 242 242 240 240 241 242 242 243 242 242 242 243 243 244 245 246 247 249 251 253 254
212 215 217 217 217 218 218 218 218 220 221 222 223 224 225 226 227 228 230 231 231 230 230 230 230 230 232 232 233 234 234 235 236 236 237 238 239 239 238 238 238 238 236 235 235 236 236 235 236 240 242 240 237 235 234 233 233 232 232 232 233 233 234 236 237 236 237 240 242 241 240 240 240 239 240 242 242 243 243 243 244 247 249 251 253 255 256 258
208 211 214 216 218 218 219 219 219 221 221 222 223 224 225 226 226 227 229 231 232 233 232 232 233 234 235 237 237 238 239 240 240 240 239 240 240 241 242 242 241 241 239 238 237 238 239 239 237 237 240 240 238 237 235 235 235 234 233 234 234 235 237 238 238 239 240 242 243 244 243 243 243 243 243 245 246 247 249 250 250 252 254 255 257 258 258 260
207 207 208 212 216 218 219 220 221 222 224 224 224 224 226 227 227 228 229 230 232 234 234 234 234 235 237 238 240 242 242 243 242 241 240 240 239 240 242 243 243 243 241 240 240 240 242 243 241 240 241 240 239 239 238 238 238 237 235 234 235 236 238 240 241 242 243 245 246 247 247 247 248 248 247 248 248 249 252 256 257 257 256 255 256 256 257 258
210 209 208 209 211 214 217 219 220 223 224 226 226 225 226 227 228 229 230 231 233 234 235 235 234 235 237 239 240 242 242 242 241 240 239 239 238 238 239 239 241 241 239 238 239 240 241 243 243 244 244 243 241 242 241 241 241 240 238 236 238 239 240 242 243 243 245 247 247 248 250 251 250 249 248 248 248 249 252 255 256 256 255 255 255 255 257 258
Height
5663 5670 5676 5681 5687 5692 5698 5704 5710 5715 5720 5725 5730 5733 5736 5740 5742 5745 5748 5751 5754 5757 5760 5763 5765 5768 5770 5772 5774 5776 5778 5780 5781 5784 5788 5789 5790 5793 5796 5799 5803 5807 5810 5813 5815 5818 5822 5826 5831 5834 5838 5841 5844 5847 5849 5851 5852 5854 5856 5857 5859 5861 5862 5864 5865 5867 5869 5871 5872 5873 5874 5875 5876 5877 5879 5880 5881 5882 5883 5884 5885 5885 5886 5886 5886 5886 5887 5887
5658 5664 5671 5677 5683 5689 5694 5700 5706 5711 5717 5722 5726 5730 5733 5736 5739 5742 5746 5749 5752 5754 5757 5760 5762 5765 5767 5770 5772 5774 5776 5778 5781 5783 5784 5785 5787 5790 5793 5796 5799 5803 5807 5810 5812 5814 5818 5823 5828 5833 5836 5839 5842 5845 5847 5849 5851 5853 5855 5857 5858 5859 5861 5863 5865 5867 5869 5870 5872 5873 5874 5875 5876 5877 5878 5879 5881 5882 5883 5884 5885 5886 5887 5886 5886 5887 5887 5887
5654 5659 5666 5673 5679 5685 5691 5697 5702 5708 5713 5718 5723 5726 5730 5733 5736 5740 5744 5747 5749 5751 5754 5756 5759 5762 5764 5767 5769 5772 5774 5777 5779 5780 5780 5783 5786 5787 5790 5793 5796 5800 5804 5806 5808 5812 5815 5819 5824 5829 5833 5837 5840 5843 5846 5848 5850 5852 5855 5856 5857 5858 5861 5863 5865 5866 5868 5869 5871 5872 5873 5874 5876 5877 5878 5879 5880 5881 5883 5884 5885 5886 5887 5887 5887 5887 5887 5887
5649 5655 5662 5669 5675 5682 5687 5693 5699 5704 5710 5715 5719 5723 5727 5730 5733 5737 5741 5744 5746 5748 5751 5754 5756 5759 5762 5765 5767 5769 5772 5775 5776 5776 5778 5781 5783 5785 5788 5790 5794 5797 5801 5804 5806 5810 5814 5818 5821 5826 5830 5834 5838 5841 5844 5846 5848 5851 5853 5854 5855 5858 5860 5861 5864 5865 5867 5868 5870 5871 5873 5874 5876 5877 5878 5878 5879 5881 5882 5883 5884 5885 5887 5888 5888 5888 5888 5888
5645 5652 5658 5665 5671 5678 5684 5689 5695 5701 5706 5711 5716 5720 5723 5727 5730 5734 5738 5741 5743 5745 5748 5751 5754 5757 5760 5762 5764 5767 5770 5772 5774 5774 5776 5779 5780 5783 5785 5788 5791 5795 5798 5801 5803 5807 5813 5817 5819 5824 5828 5832 5835 5838 5842 5844 5847 5849 5850 5852 5855 5857 5858 5860 5863 5864 5865 5867 5868 5870 5872 5873 5875 5876 5877 5878 5879 5880 5881 5882 5883 5884 5885 5887 5888 5888 5888 5888
5641 5648 5655 5661 5667 5674 5680 5686 5691 5697 5703 5707 5712 5717 5720 5724 5728 5732 5735 5737 5740 5743 5746 5749 5752 5754 5757 5760 5763 5765 5767 5769 5771 5771 5774 5777 5778 5780 5783 5785 5788 5792 5796 5798 5800 5804 5810 5815 5818 5822 5826 5830 5833 5836 5840 5844 5846 5848 5849 5852 5854 5856 5858 5860 5861 5863 5864 5866 5867 5869 5870 5872 5874 5875 5877 5878 5878 5879 5880 5881 5882 5883 5885 5886 5887 5888 5888 5888
5637 5644 5651 5657 5664 5671 5676 5682 5687 5693 5699 5704 5709 5713 5717 5721 5725 5728 5731 5734 5737 5740 5744 5747 5750 5752 5754 5759 5763 5763 5764 5766 5767 5768 5772 5774 5775 5777 5780 5782 5785 5789 5793 5795 5797 5801 5807 5813 5817 5820 5825 5829 5832 5836 5839 5842 5844 5845 5847 5850 5852 5854 5856 5858 5860 5862 5863 5864 5866 5868 5869 5871 5872 5874 5876 5877 5878 5878 5879 5880 5881 5883 5884 5885 5886 5887 5888 5888
5632 5640 5647 5654 5660 5667 5672 5678 5684 5689 5695 5701 5706 5710 5714 5718 5722 5725 5728 5731 5735 5738 5742 5745 5747 5749 5750 5755 5759 5759 5760 5763 5764 5765 5768 5771 5773 5775 5777 5780 5783 5787 5790 5792 5794 5798 5804 5810 5815 5819 5823 5827 5831 5835 5838 5841 5842 5843 5845 5848 5850 5852 5854 5856 5858 5860 5862 5863 5864 5866 5868 5869 5871 5872 5874 5875 5877 5877 5878 5879 5880 5882 5883 5884 5885 5886 5887 5888
5628 5636 5643 5650 5656 5663 5668 5674 5680 5686 5692 5697 5702 5707 5711 5715 5719 5721 5725 5728 5732 5737 5741 5742 5744 5745 5746 5749 5752 5754 5756 5758 5760 5762 5765 5768 5770 5772 5775 5777 5781 5784 5787 5789 5792 5796 5802 5807 5813 5817 5820 5825 5829 5833 5836 5838 5840 5842 5845 5847 5848 5850 5852 5854 5856 5858 5860 5861 5863 5865 5866 5868 5869 5871 5872 5874 5875 5877 5877 5878 5879 5881 5882 5883 5884 5885 5886 5887
5624 5632 5639 5646 5652 5658 5665 5671 5677 5683 5689 5694 5699 5704 5707 5712 5717 5719 5722 5726 5730 5737 5739 5739 5741 5743 5744 5745 5748 5752 5754 5755 5757 5760 5763 5766 5768 5770 5772 5775 5778 5781 5783 5786 5790 5795 5800 5805 5810 5814 5819 5823 5827 5830 5833 5835 5837 5840 5843 5845 5846 5848 5850 5852 5854 5855 5857 5859 5861 5863 5865 5867 5868 5869 5871 5872 5874 5875 5876 5877 5878 5879 5881 5882 5883 5884 5885 5886
5620 5628 5635 5642 5648 5654 5661 5668 5674 5679 5685 5690 5695 5700 5704 5709 5714 5716 5720 5723 5728 5734 5734 5734 5738 5741 5741 5742 5746 5749 5751 5753 5755 5757 5761 5764 5766 5768 5770 5772 5775 5778 5780 5784 5788 5793 5798 5803 5807 5811 5815 5820 5824 5827 5829 5832 5835 5839 5840 5842 5844 5846 5848 5850 5852 5853 5855 5857 5859 5861 5863 5865 5867 5869 5869 5871 5872 5874 5875 5876 5877 5878 5879 5880 5881 5882 5883 5884
5616 5624 5632 5639 5644 5650 5657 5664 5670 5676 5682 5687 5692 5697 5701 5706 5710 5714 5717 5721 5725 5729 5730 5731 5735 5738 5738 5740 5744 5747 5748 5751 5753 5755 5759 5762 5764 5766 5768 5770 5773 5775 5778 5781 5785 5790 5795 5800 5804 5808 5812 5817 5821 5824 5827 5830 5833 5836 5837 5838 5840 5842 5845 5847 5850 5852 5854 5856 5858 5860 5862 5864 5866 5867 5868 5869 5871 5872 5874 5875 5876 5877 5877 5878 5880 5881 5882 5883
5613 5621 5628 5635 5641 5647 5654 5660 5666 5672 5678 5683 5688 5693 5698 5703 5707 5710 5714 5717 5721 5724 5726 5729 5732 5734 5736 5739 5743 5745 5747 5749 5751 5754 5757 5759 5762 5764 5766 5768 5770 5773 5775 5778 5782 5788 5792 5796 5800 5805 5810 5815 5818 5821 5824 5827 5830 5832 5834 5836 5838 5840 5841 5845 5847 5850 5852 5854 5856 5858 5860 5863 5864 5865 5867 5868 5869 5871 5872 5873 5875 5875 5876 5877 5878 5879 5881 5882
5610 5617 5624 5631 5637 5643 5650 5657 5663 5669 5674 5680 5685 5690 5695 5700 5704 5707 5710 5713 5716 5720 5722 5726 5729 5732 5734 5737 5741 5742 5745 5747 5750 5753 5755 5757 5759 5761 5763 5766 5768 5770 5773 5776 5781 5786 5790 5793 5798 5803 5807 5812 5816 5820 5823 5826 5828 5830 5831 5834 5835 5836 5839 5842 5845 5848 5850 5852 5854 5856 5859 5861 5861 5863 5866 5866 5867 5869 5870 5872 5873 5874 5875 5875 5876 5877 5879 5880
5606 5613 5620 5627 5634 5640 5647 5653 5659 5665 5671 5676 5681 5687 5692 5696 5700 5703 5706 5709 5712 5716 5719 5722 5726 5729 5732 5735 5738 5740 5742 5745 5748 5751 5753 5755 5757 5759 5761 5764 5766 5768 5771 5774 5778 5783 5788 5792 5796 5800 5805 5809 5813 5817 5820 5823 5825 5827 5829 5831 5833 5835 5838 5842 5844 5846 5848 5851 5852 5854 5857 5858 5859 5862 5864 5864 5866 5867 5869 5870 5871 5872 5873 5874 5875 5876 5877 5878
5603 5610 5617 5624 5631 5637 5643 5649 5656 5662 5667 5672 5677 5683 5688 5692 5695 5699 5702 5705 5708 5712 5716 5719 5723 5727 5729 5732 5735 5737 5740 5743 5746 5749 5750 5752 5754 5756 5758 5761 5763 5766 5769 5772 5776 5781 5785 5790 5794 5798 5803 5807 5810 5814 5817 5820 5822 5825 5828 5829 5831 5835 5839 5841 5843 5845 5847 5849 5850 5852 5855 5856 5858 5860 5862 5863 5864 5865 5867 5868 5869 5871 5871 5872 5873 5874 5875 5875
5600 5607 5614 5621 5627 5633 5640 5646 5652 5658 5663 5668 5674 5679 5683 5687 5691 5694 5698 5701 5705 5709 5713 5716 5720 5723 5726 5730 5733 5735 5738 5741 5744 5747 5748 5749 5751 5753 5756 5758 5761 5763 5767 5770 5774 5778 5783 5787 5792 5797 5801 5804 5807 5810 5813 5816 5819 5822 5824 5825 5829 5833 5837 5840 5842 5844 5846 5847 5849 5850 5853 5854 5856 5858 5859 5861 5862 5863 5865 5866 5867 5869 5869 5870 5871 5872 5873 5873
5597 5604 5611 5618 5624 5630 5637 5643 5649 5654 5660 5665 5670 5674 5678 5682 5686 5690 5693 5697 5701 5704 5708 5712 5716 5720 5724 5729 5732 5734 5736 5738 5741 5744 5745 5747 5749 5751 5754 5756 5758 5762 5765 5768 5772 5776 5780 5785 5790 5793 5797 5801 5804 5807 5811 5815 5817 5820 5821 5824 5830 5834 5836 5839 5840 5842 5844 5845 5847 5848 5850 5853 5854 5855 5856 5858 5860 5861 5862 5864 5865 5866 5867 5868 5869 5870 5871 5871
5594 5601 5608 5615 5621 5627 5633 5639 5645 5651 5657 5661 5664 5668 5672 5677 5681 5685 5689 5693 5697 5702 5707 5711 5716 5721 5725 5728 5729 5731 5732 5734 5738 5741 5742 5744 5746 5749 5751 5753 5756 5759 5762 5766 5770 5774 5778 5782 5785 5789 5794 5799 5803 5806 5810 5812 5814 5818 5822 5827 5831 5833 5835 5837 5839 5841 5842 5843 5844 5845 5848 5850 5851 5852 5854 5856 5858 5859 5860 5862 5863 5864 5865 5866 5867 5868 5869 5869
5592 5599 5606 5612 5618 5624 5630 5636 5642 5649 5653 5657 5660 5664 5668 5672 5677 5681 5687 5694 5699 5704 5709 5713 5717 5720 5722 5724 5725 5727 5728 5731 5735 5738 5740 5742 5744 5746 5748 5750 5753 5756 5760 5764 5768 5772 5776 5779 5783 5788 5794 5798 5801 5804 5806 5808 5812 5817 5822 5824 5827 5829 5831 5833 5836 5837 5838 5839 5841 5843 5845 5847 5848 5850 5852 5853 5855 5857 5859 5860 5860 5861 5862 5864 5865 5866 5866 5867
5590 5596 5603 5609 5615 5622 5628 5634 5640 5646 5650 5655 5659 5664 5669 5674 5678 5684 5690 5695 5699 5703 5707 5710 5713 5716 5719 5722 5723 5725 5727 5730 5733 5736 5738 5739 5741 5743 5746 5748 5751 5755 5758 5762 5766 5770 5773 5777 5783 5789 5793 5795 5797 5800 5804 5808 5812 5816 5818 5820 5823 5825 5826 5828 5831 5832 5833 5835 5838 5840 5842 5845 5847 5848 5849 5851 5853 5856 5857 5857 5858 5859 5859 5861 5862 5863 5864 5865
5587 5594 5600 5607 5613 5619 5625 5631 5637 5643 5647 5652 5658 5665 5671 5676 5681 5688 5691 5692 5695 5699 5702 5705 5708 5712 5715 5718 5720 5723 5725 5728 5731 5734 5735 5737 5739 5741 5744 5747 5749 5753 5757 5761 5764 5767 5770 5775 5782 5785 5788 5792 5795 5799 5802 5805 5809 5812 5814 5817 5819 5821 5823 5826 5828 5829 5831 5833 5835 5838 5840 5843 5845 5845 5846 5848 5851 5853 5854 5855 5856 5856 5857 5858 5859 5860 5862 5863
5585 5592 5598 5604 5611 5617 5623 5629 5635 5640 5646 5651 5657 5663 5668 5674 5680 5684 5687 5690 5693 5695 5697 5700 5703 5707 5711 5714 5717 5720 5722 5725 5729 5732 5734 5736 5738 5740 5743 5746 5748 5751 5755 5759 5763 5765 5769 5774 5778 5781 5785 5789 5793 5795 5798 5800 5804 5807 5810 5813 5816 5818 5821 5824 5826 5827 5830 5831 5833 5835 5837 5839 5841 5842 5844 5846 5848 5850 5851 5852 5854 5854 5855 5856 5856 5858 5859 5861
5583 5589 5596 5602 5608 5614 5620 5626 5632 5638 5644 5650 5655 5660 5666 5671 5676 5679 5682 5687 5691 5693 5695 5697 5700 5703 5706 5711 5714 5717 5720 5723 5727 5730 5732 5734 5736 5739 5742 5744 5746 5750 5754 5758 5762 5765 5768 5773 5776 5780 5783 5786 5788 5791 5794 5797 5801 5804 5807 5810 5813 5816 5819 5820 5822 5825 5826 5827 5829 5832 5832 5835 5838 5839 5841 5843 5845 5847 5848 5849 5851 5852 5853 5854 5854 5855 5856 5858
5581 5587 5593 5600 5605 5611 5617 5622 5629 5636 5642 5647 5652 5658 5663 5668 5672 5675 5679 5683 5685 5689 5692 5695 5698 5701 5704 5708 5711 5714 5718 5721 5724 5727 5729 5731 5734 5737 5740 5742 5745 5749 5753 5757 5760 5762 5765 5770 5775 5778 5781 5783 5786 5789 5792 5795 5798 5801 5805 5807 5810 5813 5815 5816 5819 5821 5822 5823 5826 5828 5829 5832 5835 5837 5839 5840 5842 5845 5846 5847 5848 5849 5851 5852 5853 5853 5854 5855
5578 5585 5591 5597 5602 5607 5613 5620 5627 5634 5639 5644 5650 5655 5660 5664 5668 5672 5676 5679 5680 5683 5687 5691 5695 5698 5702 5706 5709 5712 5715 5717 5721 5724 5726 5729 5731 5735 5738 5741 5744 5747 5751 5754 5756 5758 5762 5767 5772 5775 5778 5781 5784 5787 5790 5793 5796 5798 5801 5805 5807 5809 5811 5813 5815 5817 5818 5820 5823 5825 5826 5828 5831 5833 5835 5837 5839 5841 5843 5844 5846 5847 5848 5850 5851 5851 5852 5852
5576 5583 5589 5595 5600 5605 5611 5618 5625 5630 5636 5642 5647 5653 5657 5660 5664 5668 5671 5672 5674 5678 5683 5687 5690 5694 5699 5702 5706 5709 5711 5714 5718 5720 5723 5726 5729 5732 5735 5739 5742 5745 5748 5750 5752 5755 5761 5765 5768 5771 5774 5777 5779 5783 5787 5790 5792 5794 5799 5802 5804 5806 5808 5810 5812 5813 5814 5816 5819 5821 5822 5823 5826 5829 5832 5835 5836 5837 5839 5841 5843 5845 5846 5847 5848 5849 5849 5850
5575 5581 5587 5593 5599 5605 5612 5618 5623 5629 5635 5640 5645 5649 5653 5657 5660 5664 5665 5665 5668 5674 5679 5683 5688 5692 5696 5699 5703 5705 5709 5713 5715 5718 5721 5724 5726 5729 5732 5736 5739 5743 5746 5748 5750 5754 5759 5763 5765 5768 5770 5773 5777 5781 5784 5786 5787 5791 5797 5799 5800 5802 5804 5806 5807 5808 5810 5812 5813 5816 5818 5818 5821 5826 5829 5831 5832 5834 5837 5839 5841 5842 5843 5844 5845 5845 5846 5847
5573 5579 5585 5591 5597 5603 5609 5616 5623 5628 5633 5637 5642 5645 5649 5653 5655 5658 5659 5660 5665 5671 5676 5680 5685 5689 5693 5697 5700 5703 5707 5710 5712 5716 5720 5721 5723 5726 5729 5733 5737 5739 5743 5745 5748 5752 5756 5759 5762 5764 5766 5770 5775 5779 5781 5783 5784 5789 5793 5794 5796 5798 5800 5802 5803 5805 5806 5807 5808 5812 5815 5815 5817 5823 5826 5828 5830 5832 5834 5836 5837 5839 5840 5841 5842 5842 5843 5843
5571 5578 5584 5590 5595 5600 5607 5613 5619 5625 5630 5634 5637 5641 5644 5646 5648 5651 5653 5657 5664 5669 5674 5678 5682 5686 5689 5693 5697 5700 5704 5706 5710 5713 5715 5717 5721 5724 5727 5731 5734 5736 5739 5741 5744 5748 5752 5755 5758 5760 5763 5768 5772 5775 5777 5779 5781 5785 5787 5789 5792 5793 5795 5797 5798 5800 5800 5801 5804 5808 5811 5812 5813 5818 5822 5825 5828 5830 5831 5832 5834 5836 5837 5838 5839 5839 5840 5840
5570 5576 5582 5589 5595 5600 5606 5610 5614 5620 5626 5630 5633 5636 5638 5640 5643 5645 5649 5657 5663 5667 5671 5676 5680 5684 5688 5691 5694 5697 5700 5703 5706 5708 5711 5714 5718 5720 5723 5726 5729 5732 5736 5738 5740 5744 5748 5750 5753 5757 5761 5765 5768 5770 5772 5774 5777 5780 5782 5785 5787 5789 5791 5791 5792 5794 5794 5796 5800 5804 5807 5807 5807 5813 5819 5823 5826 5827 5827 5829 5830 5832 5834 5835 5835 5836 5836 5837
5568 5574 5581 5588 5594 5599 5604 5608 5612 5617 5621 5625 5629 5631 5633 5635 5638 5642 5649 5657 5660 5664 5670 5674 5678 5683 5686 5689 5691 5695 5698 5701 5703 5706 5708 5711 5714 5717 5720 5723 5726 5729 5732 5734 5737 5741 5745 5747 5750 5754 5757 5760 5763 5764 5767 5770 5772 5775 5778 5780 5783 5784 5785 5785 5786 5788 5789 5792 5797 5801 5803 5803 5805 5812 5817 5820 5822 5823 5823 5825 5827 5828 5830 5831 5832 5832 5833 5834
5566 5572 5579 5584 5590 5596 5600 5605 5610 5613 5616 5620 5623 5626 5630 5631 5634 5642 5650 5654 5658 5664 5669 5673 5677 5680 5682 5684 5687 5691 5695 5698 5701 5703 5706 5708 5711 5715 5718 5721 5725 5728 5730 5733 5735 5738 5741 5743 5746 5750 5753 5756 5758 5760 5763 5767 5770 5773 5775 5777 5779 5779 5779 5780 5782 5784 5787 5790 5795 5799 5799 5800 5804 5809 5813 5816 5818 5819 5821 5822 5823 5824 5826 5827 5828 5828 5829 5830
5563 5569 5575 5580 5585 5590 5595 5600 5605 5610 5614 5615 5617 5621 5624 5628 5636 5644 5647 5651 5657 5662 5666 5670 5673 5676 5679 5681 5685 5689 5692 5694 5697 5700 5703 5705 5707 5710 5714 5719 5723 5726 5729 5732 5735 5737 5740 5743 5746 5749 5752 5754 5756 5758 5761 5765 5768 5770 5772 5773 5775 5775 5777 5780 5782 5783 5787 5790 5792 5794 5794 5796 5802 5805 5809 5812 5814 5816 5817 5818 5819 5820 5821 5822 5823 5824 5825 5826
5559 5565 5572 5577 5582 5586 5592 5596 5601 5605 5609 5611 5614 5617 5619 5627 5636 5641 5644 5650 5655 5658 5663 5667 5669 5672 5674 5677 5682 5686 5688 5691 5694 5697 5699 5701 5704 5708 5711 5715 5720 5723 5725 5729 5732 5735 5739 5742 5746 5749 5751 5754 5756 5757 5760 5762 5763 5764 5766 5767 5769 5772 5774 5777 5779 5780 5783 5784 5785 5787 5788 5794 5800 5801 5804 5807 5809 5812 5813 5814 5815 5816 5817 5818 5819 5820 5821 5822
5555 5562 5568 5575 5580 5585 5589 5593 5597 5601 5604 5607 5610 5614 5621 5629 5634 5637 5642 5648 5651 5655 5659 5661 5663 5667 5670 5674 5679 5682 5684 5688 5691 5694 5696 5699 5702 5705 5709 5713 5717 5720 5722 5726 5728 5731 5735 5738 5743 5746 5748 5751 5752 5754 5757 5758 5760 5762 5762 5763 5767 5770 5771 5773 5774 5775 5777 5778 5778 5782 5786 5792 5796 5796 5799 5803 5805 5808 5809 5810 5811 5812 5813 5814 5814 5815 5817 5817
5553 5559 5565 5571 5577 5582 5586 5590 5593 5596 5599 5603 5607 5614 5623 5629 5631 5635 5640 5645 5648 5651 5655 5657 5659 5663 5666 5671 5675 5677 5681 5684 5687 5690 5693 5696 5698 5702 5706 5710 5714 5718 5721 5724 5726 5729 5733 5735 5739 5742 5743 5746 5748 5750 5752 5753 5755 5757 5758 5762 5767 5766 5767 5769 5770 5771 5773 5773 5774 5779 5784 5789 5791 5792 5796 5799 5801 5804 5805 5806 5806 5807 5808 5809 5810 5811 5812 5813
5550 5557 5562 5568 5573 5578 5583 5587 5590 5593 5596 5600 5606 5615 5622 5624 5626 5632 5637 5642 5645 5648 5652 5655 5658 5662 5665 5669 5672 5675 5678 5680 5683 5685 5688 5691 5695 5699 5703 5706 5710 5714 5718 5721 5723 5726 5730 5731 5734 5737 5739 5741 5743 5744 5746 5748 5751 5753 5755 5760 5761 5760 5763 5766 5765 5767 5770 5770 5772 5776 5780 5783 5786 5789 5793 5796 5797 5798 5799 5800 5802 5803 5804 5804 5806 5807 5808 5809
5547 5553 5558 5563 5569 5573 5578 5581 5586 5589 5592 5597 5605 5612 5616 5618 5623 5629 5634 5638 5642 5645 5649 5652 5657 5661 5664 5667 5671 5674 5677 5679 5681 5684 5686 5689 5693 5696 5700 5703 5706 5709 5712 5716 5718 5720 5724 5726 5727 5730 5733 5735 5736 5737 5740 5744 5747 5749 5751 5754 5755 5756 5759 5760 5761 5764 5766 5766 5769 5771 5774 5778 5783 5788 5790 5791 5792 5792 5794 5796 5798 5799 5800 5800 5801 5803 5804 5805
5543 5548 5553 5559 5564 5569 5573 5577 5581 5584 5588 5596 5605 5609 5612 5615 5620 5626 5630 5633 5637 5641 5645 5649 5654 5658 5661 5665 5668 5671 5675 5677 5679 5682 5684 5688 5691 5694 5698 5700 5703 5706 5709 5711 5712 5715 5718 5720 5720 5724 5727 5728 5729 5733 5737 5740 5742 5744 5746 5749 5751 5753 5755 5755 5758 5761 5761 5762 5765 5766 5767 5772 5779 5784 5786 5785 5786 5788 5789 5791 5792 5793 5795 5796 5797 5798 5799 5800
5540 5545 5550 5555 5560 5564 5568 5571 5575 5580 5588 5596 5601 5603 5607 5612 5616 5620 5625 5629 5634 5637 5641 5645 5650 5654 5657 5661 5664 5668 5671 5673 5675 5679 5681 5684 5688 5691 5695 5698 5700 5703 5704 5705 5707 5709 5712 5714 5715 5718 5721 5723 5726 5730 5733 5734 5736 5739 5741 5744 5748 5750 5751 5751 5753 5756 5758 5759 5760 5761 5762 5767 5774 5780 5783 5782 5782 5784 5784 5786 5787 5788 5789 5791 5793 5794 5794 5795
5536 5541 5546 5551 5556 5560 5563 5567 5573 5579 5585 5590 5593 5598 5604 5609 5612 5616 5621 5625 5629 5633 5636 5641 5646 5650 5654 5657 5660 5665 5668 5669 5672 5676 5678 5682 5685 5687 5691 5694 5696 5698 5700 5701 5704 5706 5707 5709 5710 5712 5715 5719 5721 5724 5726 5728 5730 5733 5735 5738 5742 5743 5745 5746 5747 5751 5753 5753 5754 5755 5755 5760 5768 5775 5778 5778 5778 5779 5779 5780 5782 5783 5784 5786 5788 5789 5789 5790
5533 5538 5543 5547 5551 5555 5558 5563 5569 5575 5579 5584 5590 5596 5600 5604 5607 5612 5617 5621 5625 5628 5632 5636 5641 5645 5649 5652 5656 5660 5663 5666 5668 5672 5676 5678 5681 5683 5686 5689 5692 5693 5695 5696 5698 5700 5702 5702 5704 5706 5709 5712 5714 5717 5719 5721 5723 5726 5729 5734 5737 5738 5741 5742 5742 5745 5746 5745 5749 5749 5747 5755 5766 5771 5774 5774 5774 5774 5775 5777 5778 5778 5779 5781 5782 5783 5784 5784
5529 5534 5539 5542 5546 5549 5553 5559 5565 5572 5577 5582 5587 5591 5594 5599 5603 5607 5612 5617 5621 5624 5628 5632 5636 5640 5645 5648 5652 5656 5659 5661 5664 5668 5671 5673 5676 5679 5681 5684 5687 5688 5689 5692 5693 5695 5696 5696 5698 5700 5701 5703 5706 5708 5711 5714 5718 5722 5726 5729 5731 5733 5735 5736 5737 5739 5738 5741 5746 5744 5742 5753 5763 5767 5770 5770 5769 5771 5772 5773 5774 5774 5775 5775 5776 5777 5778 5779
5525 5529 5533 5538 5542 5546 5551 5559 5565 5570 5574 5578 5582 5586 5590 5594 5598 5603 5608 5612 5617 5620 5624 5628 5632 5636 5641 5644 5648 5651 5654 5657 5661 5664 5667 5669 5671 5674 5676 5678 5681 5683 5685 5687 5689 5691 5690 5689 5691 5692 5693 5695 5699 5703 5709 5715 5717 5719 5721 5723 5726 5728 5729 5731 5733 5733 5732 5737 5742 5739 5741 5752 5759 5762 5765 5764 5764 5767 5768 5768 5769 5769 5769 5770 5770 5771 5771 5772
5521 5524 5528 5533 5539 5544 5550 5556 5561 5565 5570 5574 5578 5582 5586 5590 5594 5598 5602 5607 5612 5616 5619 5623 5628 5632 5635 5639 5643 5647 5650 5653 5656 5659 5662 5665 5667 5670 5672 5673 5675 5678 5680 5681 5683 5684 5683 5683 5685 5686 5688 5693 5698 5705 5711 5714 5713 5714 5717 5720 5723 5724 5726 5728 5727 5726 5730 5735 5735 5735 5742 5749 5751 5755 5758 5758 5759 5762 5762 5762 5763 5763 5763 5763 5763 5764 5765 5766
5518 5520 5524 5529 5535 5540 5546 5551 5556 5561 5567 5571 5575 5579 5582 5586 5590 5593 5597 5602 5607 5611 5614 5618 5622 5626 5630 5634 5639 5642 5646 5648 5651 5655 5658 5660 5663 5666 5667 5668 5670 5672 5675 5676 5676 5677 5676 5677 5680 5682 5685 5691 5696 5701 5705 5706 5706 5710 5714 5716 5719 5720 5722 5721 5720 5723 5730 5729 5726 5733 5741 5743 5745 5749 5751 5752 5754 5755 5756 5756 5756 5756 5757 5757 5757 5759 5760 5762
5515 5518 5523 5528 5533 5537 5542 5548 5554 5558 5562 5566 5569 5574 5577 5581 5586 5590 5594 5598 5602 5606 5609 5612 5616 5621 5626 5630 5634 5637 5640 5643 5646 5650 5653 5655 5658 5660 5661 5663 5664 5667 5670 5670 5670 5671 5671 5673 5678 5680 5682 5686 5690 5692 5695 5698 5700 5704 5707 5708 5711 5713 5713 5713 5715 5721 5724 5720 5721 5731 5735 5734 5739 5742 5742 5745 5747 5746 5748 5749 5749 5749 5750 5752 5753 5755 5756 5757
5513 5516 5520 5525 5532 5537 5542 5547 5551 5552 5555 5559 5563 5567 5572 5577 5582 5587 5591 5595 5598 5601 5605 5609 5614 5619 5622 5626 5629 5632 5634 5638 5643 5646 5649 5651 5653 5654 5656 5658 5659 5662 5664 5664 5665 5666 5665 5669 5674 5676 5677 5681 5683 5685 5688 5691 5693 5696 5699 5701 5704 5705 5706 5708 5710 5715 5717 5714 5718 5726 5727 5727 5732 5735 5737 5739 5740 5740 5742 5743 5743 5744 5746 5748 5749 5749 5751 5751
5510 5513 5517 5522 5528 5534 5539 5543 5544 5546 5550 5554 5558 5563 5567 5571 5576 5581 5585 5589 5593 5597 5602 5607 5612 5615 5618 5621 5624 5627 5632 5636 5639 5642 5645 5646 5648 5650 5652 5653 5656 5657 5657 5659 5661 5661 5662 5666 5670 5672 5672 5674 5677 5679 5682 5684 5686 5689 5692 5695 5697 5699 5701 5703 5706 5711 5712 5710 5715 5721 5720 5722 5729 5733 5735 5736 5736 5737 5737 5737 5739 5741 5742 5743 5743 5743 5744 5743
5507 5511 5515 5519 5524 5528 5532 5537 5540 5542 5545 5549 5555 5560 5564 5567 5572 5576 5580 5584 5588 5592 5598 5603 5607 5611 5613 5616 5620 5624 5629 5632 5633 5636 5639 5640 5642 5645 5646 5647 5650 5651 5652 5654 5656 5657 5659 5662 5665 5667 5665 5666 5673 5675 5676 5678 5680 5680 5682 5687 5691 5694 5697 5700 5703 5707 5708 5708 5713 5714 5713 5720 5729 5732 5732 5732 5733 5733 5732 5732 5734 5734 5734 5735 5735 5736 5736 5736
5503 5507 5512 5516 5520 5523 5527 5531 5535 5537 5541 5547 5553 5557 5560 5564 5568 5571 5575 5578 5583 5588 5593 5597 5602 5605 5608 5611 5616 5620 5624 5626 5627 5630 5632 5633 5635 5637 5638 5640 5642 5643 5645 5648 5650 5652 5655 5656 5660 5661 5659 5663 5670 5669 5671 5674 5668 5665 5673 5684 5689 5692 5695 5697 5699 5702 5704 5705 5706 5707 5711 5720 5726 5726 5725 5726 5727 5728 5727 5727 5726 5725 5726 5727 5728 5729 5729 5729